THORAD AGENA D DEB, 4231

Orbit data source: Space-Track

THORAD AGENA D DEB, 4231 is space debris in LEO originally from a launch on Tue, 30 Sep 1969 UTC launched from the Air Force Western Test Range (AFWTR). Debris objects in space refer to the collection of defunct objects orbiting the Earth. Examples of debris include non-operational satellites, rocket bodies, and fragments generated from explosions, collisions, or faulty payload assembly.

Loading next visibility...
Identifier
4231, 1969-082CN
Orbit
LEO
Country
Flag of USUS
Related business
Manufacturer
Unknown
Mission
Spacecraft
Bus & Motor
Unknown
Mass
Unknown
Launch date (UTC)
1969-09-30 (57 years ago)
Launch vehicle
Unknown
Launch site
Air Force Western Test Range (AFWTR)
Object type
Payload
Rocket body
Debris
Shape & HBR
Unknown shape, 0.1 m
Radar Cross Section
Medium (>0.1 m² and <1 m²)

Expand to show TLE details & history
Last TLE update: 2 days ago

TLE from 2 days ago
0 THORAD AGENA D DEB
1 04231U 69082CN  26172.25528860  .00001323  00000-0  34426-3 0  9990
2 04231  70.2743 116.2380 0027565  69.4047 291.0043 14.51466804952308
Epoch: 2026-06-21T06:07Z
TLE epoch observation values (Epoch: 2026-06-21T06:07:36.935Z)
Latitude
0.00004°
Longitude
114.87593°
Altitude
716.286 km
Speed
7.501 km/s
True Right ascension
07h 44m 57s
True Declination
0° 00' 00"
Sunlit
Object was in daylight at epoch
Visualization orbit readout
Latitude
Unknown
Longitude
Unknown
Altitude
Unknown
Speed
Unknown
Apparent Right ascension
Unknown
Apparent Declination
Unknown
Sunlit
N/A
Visualization observer readout
Local Sidereal Time
19:53:44
Azimuth
Unknown
Elevation
Unknown
Doppler factor
Unknown
Orbital elements
Apogee altitude
738.388 km
Perigee altitude
699.262 km
Semi-major axis
7,096.962 km
Eccentricity
0.00276
Inclination
70.2743°
RAAN
116.238°
Arg. of periapsis
69.4047°
True anomaly
290.70905°
Mean anomaly
291.0043°
Eccentric anomaly
290.85671°
Mean motion
3.63023 °/min
Orbital period
99.17 mins
BSTAR
0.00034426

Documentation

Showing up to 5 results
|